Location: Unspecified
(57.6483°N, 3.3184°W)
Time: 19:50:28
(UTC+01:00)

N. Korean satellite - Pass Details

Date: 27 February 2021
Orbit: 452 x 499 km, 97.2° (Epoch: 20 April)

Event Time Altitude Azimuth Distance (km) Brightness Sun altitude
Rises 05:33:53 0° 18° (NNE) 2,503 10.5 -13.9°
Reaches altitude 10° 05:35:59 10° 24° (NNE) 1,629 9.6 -13.6°
Maximum altitude 05:39:22 48° 100° (E) 622 7.6 -13.2°
Drops below altitude 10° 05:42:48 10° 176° (S) 1,641 9.2 -12.7°
Sets 05:44:55 0° 182° (S) 2,523 10.1 -12.5°
